Location: Le Gr�zie
(43.6000°N, 13.5000°E)
Time: 19:40:04
(UTC+00:00)

APEX - Pass Details

Date: 09 April 2020
Orbit: 331 x 1113 km, 69.9° (Epoch: 31 May)

Event Time Altitude Azimuth Distance (km) Brightness Sun altitude
Rises 18:30:18 0° 333° (NNW) 3,787 8.4 -9.1°
Reaches altitude 10° 18:33:08 10° 335° (NNW) 2,741 7.6 -9.6°
Maximum altitude 18:39:33 80° 62° (ENE) 865 4.2 -10.7°
Drops below altitude 10° 18:44:39 10° 150° (SSE) 2,204 5.9 -11.5°
Enters shadow 18:44:50 - 150° (SSE) 2,271 6.0 -11.6°
